YF9UAG-16 Weather Reports


time (UTC)temp
C
wind
direction
speed
KPH
gust
KPH
rain 1hr
cm
rain 24hr
cm
rain mn
cm
humidity
%
barometer
mb
20260504205026 22 0 0.0 0.0 0.00 0.00 0.00 80 643.0
20260504204502 26 0 0.0 0.0 0.00 0.00 0.00 89 1010.0
20260504203941 26 0 0.0 0.0 0.00 0.00 0.00 88 1010.0
20260504203419 26 0 0.0 0.0 0.00 0.00 0.00 84 1010.0
20260504202857 26 0 0.0 0.0 0.00 0.00 0.00 89 1010.0
20260504202334 26 0 0.0 0.0 0.00 0.00 0.00 89 1009.0
20260504201812 26 0 0.0 0.0 0.00 0.00 0.00 89 1009.0
20260504201250 26 0 0.0 0.0 0.00 0.00 0.00 90 1009.0
20260504200728 26 0 0.0 0.0 0.00 0.00 0.00 90 1009.0
20260504200206 26 0 0.0 0.0 0.00 0.00 0.00 88 1009.0
20260504195644 26 0 0.0 0.0 0.00 0.00 0.00 85 1009.0
20260504195122 26 0 0.0 0.0 0.00 0.00 0.00 89 1009.0
20260504194600 26 0 0.0 0.0 0.00 0.00 0.00 89 1009.0
20260504194038 26 0 0.0 0.0 0.00 0.00 0.00 89 1009.0
20260504193516 26 0 0.0 0.0 0.00 0.00 0.00 89 1009.0
20260504192954 26 0 0.0 0.0 0.00 0.00 0.00 89 1009.0
20260504192433 26 0 0.0 0.0 0.00 0.00 0.00 87 1009.0
20260504191911 26 0 0.0 0.0 0.00 0.00 0.00 84 1009.0
20260504191348 27 0 0.0 0.0 0.00 0.00 0.00 88 1009.0
20260504190826 27 0 0.0 0.0 0.00 0.00 0.00 88 1009.0
20260504190304 26 0 0.0 0.0 0.00 0.00 0.00 89 1009.0
20260504185742 26 0 0.0 0.0 0.00 0.00 0.00 89 1009.0
20260504185220 26 0 0.0 0.0 0.00 0.00 0.00 87 1010.0
20260504184658 26 0 0.0 0.0 0.00 0.00 0.00 84 1009.0
20260504184136 27 0 0.0 0.0 0.00 0.00 0.00 88 1009.0
20260504183614 27 0 0.0 0.0 0.00 0.00 0.00 88 1009.0
20260504183052 27 0 0.0 0.0 0.00 0.00 0.00 89 1009.0
20260504182530 26 0 0.0 0.0 0.00 0.00 0.00 89 1009.0
20260504182008 26 0 0.0 0.0 0.00 0.00 0.00 88 1009.0
20260504181446 26 0 0.0 0.0 0.00 0.00 0.00 85 1009.0
20260504180924 27 0 0.0 0.0 0.00 0.00 0.00 86 1009.0
20260504180402 27 0 0.0 0.0 0.00 0.00 0.00 88 1009.0
20260504175840 27 0 0.0 0.0 0.00 0.00 0.00 88 1009.0
20260504175318 27 0 0.0 0.0 0.00 0.00 0.00 89 1009.0
20260504174756 26 0 0.0 0.0 0.00 0.00 0.00 88 1009.0
20260504174234 26 0 0.0 0.0 0.00 0.00 0.00 86 1009.0
20260504173712 26 0 0.0 0.0 0.00 0.00 0.00 84 1009.0
20260504173150 27 0 0.0 0.0 0.00 0.00 0.00 88 1009.0
20260504172628 27 0 0.0 0.0 0.00 0.00 0.00 88 1009.0
20260504172106 27 0 0.0 0.0 0.00 0.00 0.00 89 1009.0
20260504171544 26 0 0.0 0.0 0.00 0.00 0.00 89 1009.0
20260504171022 26 0 0.0 0.0 0.00 0.00 0.00 87 1009.0
20260504170500 26 0 0.0 0.0 0.00 0.00 0.00 85 1009.0
20260504150656 27 0 0.0 0.0 0.00 0.00 0.00 84 1011.0
20260504150134 26 0 0.0 0.0 0.00 0.00 0.00 81 1011.0
20260504141113 27 0 0.0 0.0 0.00 0.00 0.00 82 1011.0
20260504140551 26 0 0.0 0.0 0.00 0.00 0.00 79 1011.0
20260504130649 27 0 0.0 0.0 0.00 0.00 0.00 82 1012.0
20260504130127 27 0 0.0 0.0 0.00 0.00 0.00 83 1012.0
20260504120225 27 0 0.0 0.0 0.00 0.00 0.00 81 1011.0
20260504110323 27 0 0.0 0.0 0.00 0.00 0.00 79 1011.0
20260504100421 28 0 0.0 0.0 0.00 0.00 0.00 78 1010.0
20260504081701 28 0 0.0 0.0 0.00 0.00 0.00 82 1008.0
20260504081139 28 0 0.0 0.0 0.00 0.00 0.00 85 1008.0
20260504080617 28 0 0.0 0.0 0.00 0.00 0.00 84 1008.0
20260504070153 27 0 0.0 0.0 0.00 0.00 0.00 71 1008.0
20260504050349 38 0 0.0 0.0 0.00 0.00 0.00 35 1007.0
20260504045827 38 0 0.0 0.0 0.00 0.00 0.00 36 1007.0
20260504045305 37 0 0.0 0.0 0.00 0.00 0.00 37 1007.0
20260504044743 37 0 0.0 0.0 0.00 0.00 0.00 36 1008.0
20260504044221 37 0 0.0 0.0 0.00 0.00 0.00 37 1008.0
20260504043659 36 0 0.0 0.0 0.00 0.00 0.00 39 1008.0
20260504043137 36 0 0.0 0.0 0.00 0.00 0.00 40 1008.0
20260504042615 37 0 0.0 0.0 0.00 0.00 0.00 38 1008.0
20260504042053 37 0 0.0 0.0 0.00 0.00 0.00 39 1008.0
20260504041531 36 0 0.0 0.0 0.00 0.00 0.00 42 1008.0
20260504041009 35 0 0.0 0.0 0.00 0.00 0.00 44 1008.0
20260504040447 34 0 0.0 0.0 0.00 0.00 0.00 47 1008.0
20260504035925 33 0 0.0 0.0 0.00 0.00 0.00 49 1008.0
20260504035403 32 0 0.0 0.0 0.00 0.00 0.00 52 1008.0
20260504034841 32 0 0.0 0.0 0.00 0.00 0.00 52 1008.0
20260504034319 31 0 0.0 0.0 0.00 0.00 0.00 55 1008.0
20260504033757 31 0 0.0 0.0 0.00 0.00 0.00 55 1008.0
20260504033235 31 0 0.0 0.0 0.00 0.00 0.00 56 1009.0
20260504032713 31 0 0.0 0.0 0.00 0.00 0.00 58 1009.0
20260504032151 30 0 0.0 0.0 0.00 0.00 0.00 57 1009.0
20260504031629 30 0 0.0 0.0 0.00 0.00 0.00 59 1009.0
20260504031107 29 0 0.0 0.0 0.00 0.00 0.00 62 1009.0
20260504030545 30 0 0.0 0.0 0.00 0.00 0.00 62 1009.0
20260504030023 29 0 0.0 0.0 0.00 0.00 0.00 60 1009.0
20260504025501 29 0 0.0 0.0 0.00 0.00 0.00 58 1009.0
20260504024939 29 0 0.0 0.0 0.00 0.00 0.00 59 1009.0
20260504024417 29 0 0.0 0.0 0.00 0.00 0.00 60 1009.0
20260504023855 29 0 0.0 0.0 0.00 0.00 0.00 61 1010.0
20260504023333 29 0 0.0 0.0 0.00 0.00 0.00 62 1010.0
20260504022811 28 0 0.0 0.0 0.00 0.00 0.00 63 1010.0
20260504022249 28 0 0.0 0.0 0.00 0.00 0.00 63 1010.0
20260504021727 28 0 0.0 0.0 0.00 0.00 0.00 64 1010.0
20260504021205 29 0 0.0 0.0 0.00 0.00 0.00 67 1010.0
20260504020643 28 0 0.0 0.0 0.00 0.00 0.00 70 1010.0
20260504020121 28 0 0.0 0.0 0.00 0.00 0.00 69 1010.0
20260504015559 28 0 0.0 0.0 0.00 0.00 0.00 67 1010.0
20260504015037 28 0 0.0 0.0 0.00 0.00 0.00 70 1010.0
20260504014515 28 0 0.0 0.0 0.00 0.00 0.00 69 1011.0
20260504013953 28 0 0.0 0.0 0.00 0.00 0.00 70 1011.0
20260504013431 28 0 0.0 0.0 0.00 0.00 0.00 70 1011.0
20260504012909 28 0 0.0 0.0 0.00 0.00 0.00 68 1011.0
20260504012347 28 0 0.0 0.0 0.00 0.00 0.00 73 1011.0
20260504011825 28 0 0.0 0.0 0.00 0.00 0.00 72 1011.0
20260504011303 28 0 0.0 0.0 0.00 0.00 0.00 72 1011.0
20260504010741 28 0 0.0 0.0 0.00 0.00 0.00 71 1011.0
20260504010219 28 0 0.0 0.0 0.00 0.00 0.00 75 1011.0
20260504005657 27 0 0.0 0.0 0.00 0.00 0.00 77 1011.0
20260504005135 28 0 0.0 0.0 0.00 0.00 0.00 80 1011.0
20260504004613 28 0 0.0 0.0 0.00 0.00 0.00 76 1011.0
20260504004051 28 0 0.0 0.0 0.00 0.00 0.00 77 1012.0
20260504003529 27 0 0.0 0.0 0.00 0.00 0.00 76 1012.0
20260504003007 27 0 0.0 0.0 0.00 0.00 0.00 77 1012.0
20260504002445 28 0 0.0 0.0 0.00 0.00 0.00 80 1012.0
20260504001923 27 0 0.0 0.0 0.00 0.00 0.00 75 1012.0
20260504001401 27 0 0.0 0.0 0.00 0.00 0.00 75 1012.0
20260504000838 28 0 0.0 0.0 0.00 0.00 0.00 78 1012.0
20260504000317 27 0 0.0 0.0 0.00 0.00 0.00 75 1012.0
20260503235755 28 0 0.0 0.0 0.00 0.00 0.00 72 1012.0
20260503235233 28 0 0.0 0.0 0.00 0.00 0.00 75 1012.0
20260503234711 28 0 0.0 0.0 0.00 0.00 0.00 73 1012.0
20260503234149 28 0 0.0 0.0 0.00 0.00 0.00 70 1012.0
20260503233627 28 0 0.0 0.0 0.00 0.00 0.00 74 1012.0
20260503233105 28 0 0.0 0.0 0.00 0.00 0.00 74 1012.0
20260503232543 27 0 0.0 0.0 0.00 0.00 0.00 71 1012.0
20260503232021 28 0 0.0 0.0 0.00 0.00 0.00 75 1012.0
20260503231458 28 0 0.0 0.0 0.00 0.00 0.00 77 1012.0
20260503230937 27 0 0.0 0.0 0.00 0.00 0.00 75 1012.0
20260503230415 28 0 0.0 0.0 0.00 0.00 0.00 73 1011.0
20260503225852 28 0 0.0 0.0 0.00 0.00 0.00 78 1011.0
20260503225330 28 0 0.0 0.0 0.00 0.00 0.00 77 1011.0
20260503224808 28 0 0.0 0.0 0.00 0.00 0.00 75 1011.0
20260503224247 28 0 0.0 0.0 0.00 0.00 0.00 77 1011.0
20260503223725 28 0 0.0 0.0 0.00 0.00 0.00 80 1011.0
20260503223202 28 0 0.0 0.0 0.00 0.00 0.00 79 1011.0
20260503222641 27 0 0.0 0.0 0.00 0.00 0.00 77 1011.0
20260503222118 27 0 0.0 0.0 0.00 0.00 0.00 81 1011.0
20260503221557 27 0 0.0 0.0 0.00 0.00 0.00 85 1011.0
20260503221034 27 0 0.0 0.0 0.00 0.00 0.00 83 1011.0
20260503220513 27 0 0.0 0.0 0.00 0.00 0.00 81 1011.0
20260503215950 27 0 0.0 0.0 0.00 0.00 0.00 82 1011.0
20260503215428 27 0 0.0 0.0 0.00 0.00 0.00 86 1011.0
20260503214906 27 0 0.0 0.0 0.00 0.00 0.00 85 1011.0
20260503214344 27 0 0.0 0.0 0.00 0.00 0.00 82 1011.0
20260503213822 27 0 0.0 0.0 0.00 0.00 0.00 83 1011.0
20260503213300 27 0 0.0 0.0 0.00 0.00 0.00 87 1011.0
20260503212739 27 0 0.0 0.0 0.00 0.00 0.00 86 1011.0
20260503212217 27 0 0.0 0.0 0.00 0.00 0.00 83 1011.0
20260503211655 27 0 0.0 0.0 0.00 0.00 0.00 82 1011.0
20260503211132 27 0 0.0 0.0 0.00 0.00 0.00 87 1010.0
20260503210611 27 0 0.0 0.0 0.00 0.00 0.00 85 1010.0
20260503210048 27 0 0.0 0.0 0.00 0.00 0.00 83 1010.0
20260503205526 27 0 0.0 0.0 0.00 0.00 0.00 82 1010.0